| time (UTC) | temp C | wind direction | speed KPH | gust KPH | rain 1hr cm | rain 24hr cm | rain mn cm | humidity % | barometer mb |
| 20260509175828 | 14 | 111 | 4.8 | 11.3 | 0.03 | 0.05 | 0.05 | 65 | 1019.8 |
| 20260509174827 | 15 | 140 | 1.6 | 11.3 | 0.03 | 0.05 | 0.05 | 63 | 1019.8 |
| 20260509174328 | 15 | 273 | 1.6 | 8.0 | 0.03 | 0.05 | 0.05 | 59 | 1019.8 |
| 20260509173828 | 15 | 293 | 1.6 | 9.7 | 0.03 | 0.05 | 0.05 | 58 | 1019.8 |
| 20260509173327 | 15 | 279 | 3.2 | 12.9 | 0.00 | 0.03 | 0.03 | 58 | 1019.8 |
| 20260509172827 | 15 | 300 | 4.8 | 11.3 | 0.00 | 0.03 | 0.03 | 57 | 1019.8 |
| 20260509172329 | 15 | 255 | 3.2 | 12.9 | 0.00 | 0.03 | 0.03 | 57 | 1019.8 |
| 20260509171827 | 15 | 282 | 3.2 | 12.9 | 0.00 | 0.03 | 0.03 | 56 | 1019.8 |
| 20260509171328 | 15 | 306 | 8.0 | 16.1 | 0.00 | 0.03 | 0.03 | 56 | 1019.8 |
| 20260509170328 | 16 | 299 | 8.0 | 14.5 | 0.00 | 0.03 | 0.03 | 55 | 1019.7 |
| 20260509165827 | 16 | 314 | 4.8 | 19.3 | 0.00 | 0.03 | 0.03 | 56 | 1019.7 |
| 20260509165329 | 16 | 310 | 8.0 | 20.9 | 0.00 | 0.03 | 0.03 | 55 | 1019.6 |
| 20260509164827 | 16 | 299 | 4.8 | 14.5 | 0.00 | 0.03 | 0.03 | 56 | 1019.6 |
| 20260509164330 | 16 | 262 | 1.6 | 9.7 | 0.00 | 0.03 | 0.03 | 56 | 1019.7 |
| 20260509163828 | 16 | 259 | 3.2 | 9.7 | 0.00 | 0.03 | 0.03 | 56 | 1019.7 |
| 20260509163328 | 16 | 164 | 1.6 | 11.3 | 0.00 | 0.03 | 0.03 | 57 | 1019.7 |
| 20260509162828 | 16 | 273 | 3.2 | 9.7 | 0.00 | 0.03 | 0.03 | 56 | 1019.7 |
| 20260509162327 | 16 | 288 | 3.2 | 16.1 | 0.00 | 0.03 | 0.03 | 57 | 1019.6 |
| 20260509161828 | 16 | 285 | 8.0 | 16.1 | 0.00 | 0.03 | 0.03 | 56 | 1019.6 |
| 20260509161328 | 16 | 238 | 3.2 | 12.9 | 0.00 | 0.03 | 0.03 | 57 | 1019.6 |
| 20260509160828 | 16 | 302 | 9.7 | 16.1 | 0.00 | 0.03 | 0.03 | 57 | 1019.6 |
| 20260509155329 | 16 | 195 | 1.6 | 9.7 | 0.00 | 0.03 | 0.03 | 59 | 1019.7 |
| 20260509154828 | 15 | 122 | 9.7 | 20.9 | 0.00 | 0.03 | 0.03 | 59 | 1019.7 |
| 20260509153828 | 15 | 265 | 4.8 | 16.1 | 0.00 | 0.03 | 0.03 | 59 | 1019.7 |
| 20260509153328 | 15 | 300 | 8.0 | 12.9 | 0.00 | 0.03 | 0.03 | 59 | 1019.7 |
| 20260509152828 | 15 | 298 | 6.4 | 14.5 | 0.00 | 0.03 | 0.03 | 60 | 1019.7 |
| 20260509152330 | 15 | 290 | 4.8 | 19.3 | 0.00 | 0.03 | 0.03 | 59 | 1019.6 |
| 20260509151828 | 16 | 285 | 4.8 | 9.7 | 0.00 | 0.03 | 0.03 | 59 | 1019.7 |
| 20260509151329 | 16 | 254 | 3.2 | 9.7 | 0.00 | 0.03 | 0.03 | 59 | 1019.7 |
| 20260509150828 | 16 | 292 | 4.8 | 14.5 | 0.00 | 0.03 | 0.03 | 59 | 1019.7 |
| 20260509150330 | 16 | 278 | 6.4 | 14.5 | 0.00 | 0.03 | 0.03 | 58 | 1019.7 |
| 20260509145829 | 16 | 244 | 3.2 | 9.7 | 0.00 | 0.03 | 0.03 | 58 | 1019.7 |
| 20260509145328 | 16 | 275 | 3.2 | 14.5 | 0.00 | 0.03 | 0.03 | 58 | 1019.8 |
| 20260509144828 | 16 | 288 | 4.8 | 14.5 | 0.00 | 0.03 | 0.03 | 58 | 1019.8 |
| 20260509144330 | 16 | 299 | 8.0 | 16.1 | 0.00 | 0.03 | 0.03 | 57 | 1019.8 |
| 20260509143829 | 16 | 294 | 4.8 | 11.3 | 0.00 | 0.03 | 0.03 | 58 | 1019.8 |
| 20260509143329 | 16 | 303 | 8.0 | 14.5 | 0.00 | 0.03 | 0.03 | 58 | 1019.9 |
| 20260509142829 | 16 | 156 | 1.6 | 9.7 | 0.00 | 0.03 | 0.03 | 57 | 1019.8 |
| 20260509142330 | 16 | 242 | 3.2 | 9.7 | 0.00 | 0.03 | 0.03 | 59 | 1019.9 |
| 20260509141829 | 16 | 260 | 3.2 | 9.7 | 0.00 | 0.03 | 0.03 | 59 | 1019.9 |
| 20260509141331 | 16 | 311 | 4.8 | 11.3 | 0.00 | 0.03 | 0.03 | 59 | 1020.0 |
| 20260509140828 | 16 | 309 | 8.0 | 16.1 | 0.00 | 0.03 | 0.03 | 59 | 1020.0 |
| 20260509140329 | 16 | 304 | 9.7 | 14.5 | 0.00 | 0.03 | 0.03 | 58 | 1020.0 |
| 20260509135828 | 16 | 243 | 1.6 | 12.9 | 0.00 | 0.03 | 0.03 | 59 | 1020.0 |
| 20260509135329 | 16 | 303 | 3.2 | 9.7 | 0.00 | 0.03 | 0.03 | 59 | 1020.0 |
| 20260509134330 | 16 | 304 | 6.4 | 14.5 | 0.00 | 0.03 | 0.03 | 60 | 1019.9 |
| 20260509133830 | 16 | 287 | 6.4 | 14.5 | 0.00 | 0.03 | 0.03 | 60 | 1019.9 |
| 20260509133329 | 16 | 296 | 8.0 | 12.9 | 0.00 | 0.03 | 0.03 | 59 | 1019.9 |
| 20260509132829 | 16 | 291 | 4.8 | 9.7 | 0.00 | 0.03 | 0.03 | 60 | 1019.8 |
| 20260509132330 | 16 | 296 | 8.0 | 16.1 | 0.00 | 0.03 | 0.03 | 60 | 1019.8 |
| 20260509131830 | 16 | 301 | 4.8 | 9.7 | 0.00 | 0.03 | 0.03 | 60 | 1019.8 |
| 20260509130829 | 16 | 293 | 4.8 | 9.7 | 0.00 | 0.03 | 0.03 | 59 | 1019.9 |
| 20260509130329 | 16 | 213 | 1.6 | 8.0 | 0.00 | 0.03 | 0.03 | 61 | 1019.9 |
| 20260509125830 | 15 | 278 | 1.6 | 11.3 | 0.00 | 0.03 | 0.03 | 61 | 1019.9 |
| 20260509125329 | 15 | 290 | 3.2 | 9.7 | 0.00 | 0.03 | 0.03 | 61 | 1019.9 |
| 20260509124831 | 15 | 276 | 4.8 | 14.5 | 0.00 | 0.03 | 0.03 | 62 | 1019.9 |
| 20260509124330 | 15 | 143 | 1.6 | 9.7 | 0.00 | 0.03 | 0.03 | 62 | 1019.8 |
| 20260509123829 | 15 | 307 | 8.0 | 14.5 | 0.00 | 0.03 | 0.03 | 61 | 1019.9 |
| 20260509123329 | 15 | 291 | 6.4 | 16.1 | 0.00 | 0.03 | 0.03 | 61 | 1019.9 |
| 20260509121832 | 15 | 279 | 4.8 | 9.7 | 0.00 | 0.03 | 0.03 | 62 | 1020.0 |
| 20260509121330 | 15 | 286 | 4.8 | 9.7 | 0.00 | 0.03 | 0.03 | 63 | 1020.0 |
| 20260509115830 | 15 | 148 | 4.8 | 9.7 | 0.00 | 0.03 | 0.03 | 63 | 1020.1 |
| 20260509114830 | 15 | 295 | 4.8 | 9.7 | 0.00 | 0.03 | 0.03 | 63 | 1020.1 |
| 20260509114331 | 15 | 279 | 4.8 | 9.7 | 0.00 | 0.03 | 0.03 | 65 | 1020.0 |
| 20260509113330 | 15 | 293 | 4.8 | 19.3 | 0.00 | 0.03 | 0.03 | 65 | 1020.1 |
| 20260509112332 | 15 | 309 | 4.8 | 9.7 | 0.00 | 0.03 | 0.03 | 65 | 1020.0 |
| 20260509111830 | 15 | 137 | 3.2 | 16.1 | 0.00 | 0.03 | 0.03 | 66 | 1020.1 |
| 20260509111330 | 15 | 301 | 11.3 | 20.9 | 0.00 | 0.03 | 0.03 | 64 | 1020.0 |
| 20260509105832 | 15 | 311 | 4.8 | 12.9 | 0.00 | 0.03 | 0.03 | 67 | 1020.0 |
| 20260509105331 | 15 | 165 | 4.8 | 9.7 | 0.00 | 0.03 | 0.03 | 67 | 1020.0 |
| 20260509104831 | 14 | 199 | 1.6 | 16.1 | 0.00 | 0.03 | 0.03 | 68 | 1020.0 |
| 20260509104330 | 14 | 259 | 8.0 | 14.5 | 0.00 | 0.03 | 0.03 | 67 | 1020.0 |
| 20260509103832 | 15 | 307 | 9.7 | 20.9 | 0.00 | 0.03 | 0.03 | 67 | 1020.0 |
| 20260509103332 | 14 | 209 | 4.8 | 9.7 | 0.00 | 0.03 | 0.03 | 68 | 1020.1 |
| 20260509102830 | 14 | 130 | 3.2 | 12.9 | 0.00 | 0.03 | 0.03 | 69 | 1020.1 |
| 20260509102331 | 14 | 314 | 4.8 | 12.9 | 0.00 | 0.03 | 0.03 | 67 | 1020.2 |
| 20260509101832 | 14 | 281 | 3.2 | 11.3 | 0.00 | 0.03 | 0.03 | 69 | 1020.3 |
| 20260509101331 | 14 | 109 | 4.8 | 11.3 | 0.00 | 0.03 | 0.03 | 69 | 1020.3 |
| 20260509100332 | 14 | 298 | 1.6 | 9.7 | 0.00 | 0.03 | 0.03 | 71 | 1020.2 |
| 20260509095831 | 13 | 288 | 3.2 | 9.7 | 0.00 | 0.03 | 0.03 | 71 | 1020.2 |
| 20260509095331 | 13 | 129 | 1.6 | 9.7 | 0.00 | 0.03 | 0.03 | 73 | 1020.2 |
| 20260509094833 | 13 | 274 | 3.2 | 9.7 | 0.00 | 0.03 | 0.03 | 72 | 1020.2 |
| 20260509094331 | 12 | 265 | 3.2 | 16.1 | 0.00 | 0.03 | 0.03 | 74 | 1020.3 |
| 20260509093831 | 12 | 290 | 4.8 | 11.3 | 0.00 | 0.03 | 0.03 | 74 | 1020.2 |
| 20260509093331 | 12 | 268 | 3.2 | 12.9 | 0.00 | 0.03 | 0.03 | 74 | 1020.2 |
| 20260509092832 | 12 | 288 | 1.6 | 8.0 | 0.00 | 0.03 | 0.03 | 74 | 1020.2 |
| 20260509092330 | 12 | 129 | 1.6 | 9.7 | 0.00 | 0.03 | 0.03 | 76 | 1020.3 |
| 20260509091832 | 11 | 287 | 4.8 | 11.3 | 0.00 | 0.03 | 0.03 | 76 | 1020.4 |
| 20260509090831 | 11 | 304 | 3.2 | 9.7 | 0.00 | 0.03 | 0.03 | 74 | 1020.4 |
| 20260509090331 | 11 | 297 | 3.2 | 9.7 | 0.00 | 0.03 | 0.03 | 76 | 1020.4 |
| 20260509085832 | 11 | 302 | 3.2 | 11.3 | 0.00 | 0.03 | 0.03 | 76 | 1020.3 |
| 20260509085331 | 10 | 301 | 6.4 | 19.3 | 0.00 | 0.03 | 0.03 | 76 | 1020.3 |
| 20260509084831 | 10 | 304 | 4.8 | 11.3 | 0.00 | 0.03 | 0.03 | 76 | 1020.4 |
| 20260509084332 | 10 | 299 | 8.0 | 14.5 | 0.00 | 0.03 | 0.03 | 76 | 1020.3 |
| 20260509083831 | 10 | 306 | 11.3 | 16.1 | 0.00 | 0.03 | 0.03 | 76 | 1020.3 |
| 20260509083331 | 10 | 298 | 4.8 | 12.9 | 0.00 | 0.03 | 0.03 | 77 | 1020.3 |
| 20260509082833 | 10 | 297 | 3.2 | 9.7 | 0.00 | 0.03 | 0.03 | 77 | 1020.2 |
| 20260509082332 | 10 | 306 | 8.0 | 12.9 | 0.00 | 0.03 | 0.03 | 77 | 1020.2 |
| 20260509081832 | 10 | 302 | 3.2 | 11.3 | 0.00 | 0.03 | 0.03 | 78 | 1020.1 |
| 20260509081333 | 10 | 280 | 4.8 | 12.9 | 0.00 | 0.03 | 0.03 | 78 | 1020.2 |
| 20260509080332 | 10 | 320 | 3.2 | 9.7 | 0.00 | 0.03 | 0.03 | 80 | 1020.1 |
| 20260509075833 | 10 | 308 | 3.2 | 12.9 | 0.00 | 0.03 | 0.03 | 80 | 1020.1 |
| 20260509075333 | 9 | 312 | 3.2 | 11.3 | 0.00 | 0.03 | 0.03 | 80 | 1020.1 |
| 20260509074832 | 9 | 304 | 8.0 | 14.5 | 0.00 | 0.03 | 0.03 | 80 | 1020.0 |
| 20260509074332 | 9 | 300 | 4.8 | 11.3 | 0.00 | 0.03 | 0.03 | 80 | 1019.9 |
| 20260509073832 | 9 | 303 | 8.0 | 19.3 | 0.00 | 0.03 | 0.03 | 79 | 1019.9 |
| 20260509073333 | 9 | 316 | 4.8 | 11.3 | 0.00 | 0.03 | 0.03 | 80 | 1019.9 |
| 20260509072833 | 9 | 301 | 4.8 | 12.9 | 0.00 | 0.03 | 0.03 | 80 | 1020.0 |
| 20260509072332 | 9 | 314 | 6.4 | 12.9 | 0.00 | 0.03 | 0.03 | 81 | 1019.9 |
| 20260509071332 | 8 | 303 | 4.8 | 9.7 | 0.03 | 0.03 | 0.03 | 82 | 1019.9 |
| 20260509070832 | 8 | 309 | 4.8 | 9.7 | 0.03 | 0.03 | 0.03 | 82 | 1019.8 |
| 20260509070332 | 8 | 300 | 8.0 | 14.5 | 0.03 | 0.03 | 0.03 | 82 | 1019.8 |
| 20260509065832 | 8 | 311 | 4.8 | 11.3 | 0.03 | 0.03 | 0.03 | 83 | 1019.8 |
| 20260509064833 | 8 | 301 | 4.8 | 9.7 | 0.03 | 0.03 | 0.03 | 83 | 1019.7 |
| 20260509064333 | 8 | 304 | 3.2 | 12.9 | 0.03 | 0.03 | 0.03 | 84 | 1019.6 |
| 20260509063834 | 8 | 312 | 4.8 | 9.7 | 0.03 | 0.03 | 0.03 | 84 | 1019.6 |
| 20260509063332 | 8 | 309 | 6.4 | 12.9 | 0.03 | 0.03 | 0.03 | 84 | 1019.7 |
| 20260509062832 | 8 | 303 | 8.0 | 11.3 | 0.03 | 0.03 | 0.03 | 85 | 1019.7 |
| 20260509062333 | 7 | 304 | 6.4 | 9.7 | 0.03 | 0.03 | 0.03 | 85 | 1019.6 |
| 20260509061835 | 7 | 307 | 4.8 | 9.7 | 0.00 | 0.00 | 0.00 | 85 | 1019.6 |
| 20260509060835 | 7 | 307 | 3.2 | 9.7 | 0.00 | 0.00 | 0.00 | 86 | 1019.7 |
| 20260509060333 | 7 | 309 | 3.2 | 9.7 | 0.00 | 0.00 | 0.00 | 86 | 1019.7 |
| 20260509055833 | 7 | 311 | 4.8 | 9.7 | 0.00 | 0.00 | 0.00 | 86 | 1019.7 |
| 20260509055333 | 7 | 312 | 4.8 | 9.7 | 0.00 | 0.00 | 0.00 | 86 | 1019.7 |
| 20260509054833 | 7 | 311 | 4.8 | 9.7 | 0.00 | 0.00 | 0.00 | 86 | 1019.6 |
| 20260509054333 | 7 | 307 | 4.8 | 9.7 | 0.00 | 0.00 | 0.00 | 86 | 1019.5 |
| 20260509053833 | 7 | 309 | 1.6 | 9.7 | 0.00 | 0.00 | 0.00 | 86 | 1019.5 |
| 20260509053334 | 7 | 304 | 3.2 | 8.0 | 0.00 | 0.00 | 0.00 | 86 | 1019.3 |
| 20260509052833 | 7 | 303 | 4.8 | 11.3 | 0.00 | 0.00 | 0.00 | 86 | 1019.3 |
| 20260509052333 | 7 | 311 | 4.8 | 9.7 | 0.00 | 0.00 | 0.00 | 86 | 1019.3 |
| 20260509051333 | 7 | 308 | 3.2 | 9.7 | 0.00 | 0.00 | 0.00 | 86 | 1019.1 |
| 20260509050835 | 7 | 303 | 4.8 | 9.7 | 0.00 | 0.00 | 0.00 | 86 | 1019.1 |
| 20260509050333 | 7 | 302 | 4.8 | 9.7 | 0.00 | 0.00 | 0.00 | 86 | 1019.0 |
| 20260509045833 | 7 | 303 | 8.0 | 11.3 | 0.00 | 0.00 | 0.00 | 86 | 1019.0 |
| 20260509045333 | 7 | 306 | 8.0 | 12.9 | 0.00 | 0.00 | 0.00 | 86 | 1019.1 |
| 20260509044833 | 7 | 317 | 8.0 | 11.3 | 0.00 | 0.00 | 0.00 | 85 | 1019.2 |
| 20260509043834 | 7 | 315 | 6.4 | 9.7 | 0.00 | 0.00 | 0.00 | 85 | 1019.1 |
| 20260509043334 | 7 | 313 | 3.2 | 9.7 | 0.00 | 0.00 | 0.00 | 85 | 1019.1 |
| 20260509042834 | 7 | 311 | 4.8 | 11.3 | 0.00 | 0.00 | 0.00 | 85 | 1019.1 |
| 20260509042335 | 7 | 308 | 3.2 | 9.7 | 0.00 | 0.00 | 0.00 | 85 | 1019.1 |
| 20260509041834 | 7 | 316 | 4.8 | 9.7 | 0.00 | 0.00 | 0.00 | 85 | 1019.1 |
| 20260509041333 | 7 | 308 | 4.8 | 9.7 | 0.00 | 0.00 | 0.00 | 85 | 1019.0 |
| 20260509040834 | 7 | 309 | 4.8 | 9.7 | 0.00 | 0.00 | 0.00 | 85 | 1019.0 |
| 20260509040334 | 7 | 307 | 4.8 | 9.7 | 0.00 | 0.00 | 0.00 | 85 | 1019.0 |
| 20260509035834 | 7 | 310 | 3.2 | 8.0 | 0.00 | 0.00 | 0.00 | 85 | 1019.0 |
| 20260509035333 | 7 | 310 | 3.2 | 4.8 | 0.00 | 0.00 | 0.00 | 85 | 1019.0 |
| 20260509034834 | 7 | 310 | 4.8 | 9.7 | 0.00 | 0.00 | 0.00 | 85 | 1018.9 |
| 20260509034334 | 7 | 320 | 3.2 | 8.0 | 0.00 | 0.00 | 0.00 | 85 | 1018.8 |
| 20260509033835 | 7 | 306 | 3.2 | 9.7 | 0.00 | 0.00 | 0.00 | 85 | 1018.8 |
| 20260509033333 | 7 | 314 | 4.8 | 9.7 | 0.00 | 0.00 | 0.00 | 85 | 1018.8 |
| 20260509032835 | 7 | 317 | 4.8 | 9.7 | 0.00 | 0.00 | 0.00 | 85 | 1018.8 |
| 20260509032334 | 7 | 309 | 4.8 | 9.7 | 0.00 | 0.00 | 0.00 | 86 | 1018.8 |
| 20260509031834 | 7 | 306 | 8.0 | 9.7 | 0.00 | 0.00 | 0.00 | 86 | 1018.8 |
| 20260509031335 | 7 | 311 | 4.8 | 11.3 | 0.00 | 0.00 | 0.00 | 86 | 1018.9 |
| 20260509030334 | 7 | 315 | 4.8 | 11.3 | 0.00 | 0.00 | 0.00 | 87 | 1018.9 |
| 20260509025835 | 7 | 309 | 3.2 | 9.7 | 0.00 | 0.00 | 0.00 | 87 | 1018.8 |
| 20260509025334 | 7 | 313 | 4.8 | 9.7 | 0.00 | 0.00 | 0.00 | 87 | 1018.8 |
| 20260509024335 | 7 | 304 | 3.2 | 9.7 | 0.00 | 0.00 | 0.00 | 88 | 1018.8 |
| 20260509023835 | 7 | 313 | 3.2 | 9.7 | 0.00 | 0.00 | 0.00 | 88 | 1018.8 |
| 20260509023335 | 7 | 308 | 4.8 | 9.7 | 0.00 | 0.00 | 0.00 | 88 | 1018.7 |
| 20260509022834 | 7 | 315 | 4.8 | 8.0 | 0.00 | 0.00 | 0.00 | 87 | 1018.8 |
| 20260509020835 | 7 | 313 | 1.6 | 8.0 | 0.00 | 0.00 | 0.00 | 87 | 1018.7 |
| 20260509020334 | 8 | 311 | 1.6 | 8.0 | 0.00 | 0.00 | 0.00 | 86 | 1018.7 |
| 20260509015836 | 8 | 310 | 1.6 | 8.0 | 0.00 | 0.00 | 0.00 | 86 | 1018.7 |
| 20260509015334 | 8 | 315 | 4.8 | 9.7 | 0.00 | 0.00 | 0.00 | 85 | 1018.6 |
| 20260509014836 | 8 | 313 | 3.2 | 9.7 | 0.00 | 0.00 | 0.00 | 84 | 1018.6 |
| 20260509014335 | 8 | 314 | 3.2 | 8.0 | 0.00 | 0.00 | 0.00 | 83 | 1018.7 |
| 20260509013836 | 8 | 311 | 4.8 | 14.5 | 0.00 | 0.00 | 0.00 | 83 | 1018.7 |
| 20260509013335 | 8 | 313 | 8.0 | 12.9 | 0.00 | 0.00 | 0.00 | 83 | 1018.6 |
| 20260509012835 | 8 | 313 | 3.2 | 9.7 | 0.00 | 0.00 | 0.00 | 83 | 1018.7 |
| 20260509012335 | 8 | 311 | 3.2 | 4.8 | 0.00 | 0.00 | 0.00 | 83 | 1018.7 |
| 20260509011834 | 8 | 311 | 3.2 | 4.8 | 0.00 | 0.00 | 0.00 | 83 | 1018.7 |
| 20260509011336 | 8 | 300 | 1.6 | 4.8 | 0.00 | 0.00 | 0.00 | 83 | 1018.7 |
| 20260509010835 | 8 | 287 | 0.0 | 1.6 | 0.00 | 0.00 | 0.00 | 83 | 1018.7 |
| 20260509010336 | 8 | 300 | 0.0 | 3.2 | 0.00 | 0.00 | 0.00 | 83 | 1018.6 |
| 20260509005336 | 9 | 293 | 0.0 | 3.2 | 0.00 | 0.00 | 0.00 | 83 | 1018.6 |
| 20260509004836 | 9 | 318 | 1.6 | 4.8 | 0.00 | 0.00 | 0.00 | 83 | 1018.6 |
| 20260509004335 | 9 | 299 | 0.0 | 3.2 | 0.00 | 0.00 | 0.00 | 83 | 1018.5 |
| 20260509003835 | 9 | 297 | 0.0 | 8.0 | 0.00 | 0.00 | 0.00 | 83 | 1018.5 |
| 20260509003336 | 9 | 282 | 0.0 | 4.8 | 0.00 | 0.00 | 0.00 | 83 | 1018.6 |
| 20260509002337 | 9 | 300 | 0.0 | 3.2 | 0.00 | 0.00 | 0.00 | 84 | 1018.6 |
| 20260509001835 | 9 | 306 | 3.2 | 9.7 | 0.00 | 0.00 | 0.00 | 84 | 1018.5 |
| 20260509001336 | 9 | 301 | 0.0 | 3.2 | 0.00 | 0.00 | 0.00 | 85 | 1018.5 |
| 20260509000835 | 9 | 265 | 1.6 | 4.8 | 0.00 | 0.00 | 0.00 | 85 | 1018.5 |
| 20260509000337 | 9 | 177 | 0.0 | 3.2 | 0.00 | 0.00 | 0.00 | 85 | 1018.5 |
| 20260508235835 | 9 | 246 | 0.0 | 8.0 | 0.00 | 0.00 | 0.00 | 85 | 1018.4 |
| 20260508235336 | 9 | 258 | 0.0 | 3.2 | 0.00 | 0.00 | 0.00 | 85 | 1018.4 |
| 20260508234835 | 9 | 97 | 0.0 | 3.2 | 0.00 | 0.00 | 0.00 | 85 | 1018.5 |
| 20260508234337 | 9 | 243 | 0.0 | 1.6 | 0.00 | 0.00 | 0.00 | 85 | 1018.4 |
| 20260508233836 | 9 | 251 | 0.0 | 1.6 | 0.00 | 0.00 | 0.00 | 85 | 1018.4 |
| 20260508233335 | 9 | 252 | 0.0 | 3.2 | 0.00 | 0.00 | 0.00 | 84 | 1018.4 |
| 20260508232837 | 9 | 272 | 0.0 | 3.2 | 0.00 | 0.00 | 0.00 | 84 | 1018.4 |
| 20260508232335 | 9 | 292 | 1.6 | 8.0 | 0.00 | 0.00 | 0.00 | 84 | 1018.4 |
| 20260508231836 | 9 | 264 | 1.6 | 3.2 | 0.00 | 0.00 | 0.00 | 84 | 1018.5 |
| 20260508231336 | 9 | 251 | 1.6 | 4.8 | 0.00 | 0.00 | 0.00 | 84 | 1018.4 |
| 20260508230337 | 10 | 288 | 0.0 | 3.2 | 0.00 | 0.00 | 0.00 | 84 | 1018.4 |
| 20260508225837 | 10 | 283 | 0.0 | 1.6 | 0.00 | 0.00 | 0.00 | 83 | 1018.4 |
| 20260508225337 | 10 | 225 | 0.0 | 1.6 | 0.00 | 0.00 | 0.00 | 83 | 1018.4 |
| 20260508224337 | 10 | 261 | 0.0 | 1.6 | 0.00 | 0.00 | 0.00 | 83 | 1018.4 |
| 20260508223336 | 10 | 194 | 0.0 | 1.6 | 0.00 | 0.00 | 0.00 | 82 | 1018.4 |
| 20260508222837 | 10 | 257 | 0.0 | 1.6 | 0.00 | 0.00 | 0.00 | 82 | 1018.3 |
| 20260508222338 | 10 | 200 | 0.0 | 1.6 | 0.00 | 0.00 | 0.00 | 82 | 1018.2 |
| 20260508221837 | 10 | 134 | 1.6 | 4.8 | 0.00 | 0.00 | 0.00 | 82 | 1018.2 |
| 20260508221336 | 10 | 113 | 0.0 | 1.6 | 0.00 | 0.00 | 0.00 | 82 | 1018.2 |
| 20260508220836 | 10 | 143 | 0.0 | 1.6 | 0.00 | 0.00 | 0.00 | 82 | 1018.2 |
| 20260508220337 | 10 | 169 | 0.0 | 1.6 | 0.00 | 0.00 | 0.00 | 81 | 1018.1 |
| 20260508215337 | 10 | 130 | 0.0 | 1.6 | 0.00 | 0.00 | 0.00 | 81 | 1018.2 |
| 20260508214837 | 10 | 128 | 0.0 | 1.6 | 0.00 | 0.00 | 0.00 | 81 | 1018.1 |
| 20260508214337 | 10 | 116 | 0.0 | 3.2 | 0.00 | 0.00 | 0.00 | 80 | 1018.1 |
| 20260508213836 | 10 | 123 | 1.6 | 4.8 | 0.00 | 0.00 | 0.00 | 80 | 1018.1 |
| 20260508213338 | 11 | 99 | 0.0 | 3.2 | 0.00 | 0.00 | 0.00 | 80 | 1018.1 |
| 20260508212837 | 11 | 116 | 0.0 | 3.2 | 0.00 | 0.00 | 0.00 | 80 | 1018.1 |
| 20260508212337 | 11 | 108 | 1.6 | 4.8 | 0.00 | 0.00 | 0.00 | 81 | 1018.1 |
| 20260508211837 | 11 | 216 | 0.0 | 3.2 | 0.00 | 0.00 | 0.00 | 80 | 1018.0 |
| 20260508211337 | 11 | 138 | 0.0 | 3.2 | 0.00 | 0.00 | 0.00 | 80 | 1017.9 |
| 20260508205837 | 11 | 135 | 0.0 | 1.6 | 0.00 | 0.00 | 0.00 | 80 | 1017.8 |
| 20260508205338 | 11 | 125 | 0.0 | 1.6 | 0.00 | 0.00 | 0.00 | 80 | 1017.8 |
| 20260508204837 | 11 | 111 | 0.0 | 1.6 | 0.00 | 0.00 | 0.00 | 80 | 1017.7 |
| 20260508204338 | 11 | 110 | 1.6 | 3.2 | 0.00 | 0.00 | 0.00 | 80 | 1017.7 |
| 20260508202339 | 12 | 99 | 1.6 | 4.8 | 0.00 | 0.00 | 0.00 | 78 | 1017.4 |
| 20260508201839 | 12 | 91 | 1.6 | 8.0 | 0.00 | 0.00 | 0.00 | 78 | 1017.4 |
| 20260508201337 | 12 | 119 | 1.6 | 4.8 | 0.00 | 0.00 | 0.00 | 77 | 1017.3 |
| 20260508200839 | 12 | 113 | 0.0 | 1.6 | 0.00 | 0.00 | 0.00 | 77 | 1017.3 |
| 20260508195838 | 12 | 106 | 1.6 | 9.7 | 0.00 | 0.00 | 0.00 | 77 | 1017.2 |
| 20260508195338 | 12 | 99 | 1.6 | 8.0 | 0.00 | 0.00 | 0.00 | 76 | 1017.1 |
| 20260508194837 | 12 | 105 | 0.0 | 1.6 | 0.00 | 0.00 | 0.00 | 76 | 1017.0 |
| 20260508194337 | 12 | 107 | 0.0 | 3.2 | 0.00 | 0.00 | 0.00 | 76 | 1017.0 |
| 20260508193837 | 12 | 106 | 0.0 | 9.7 | 0.00 | 0.00 | 0.00 | 75 | 1017.0 |
| 20260508193337 | 12 | 102 | 3.2 | 8.0 | 0.00 | 0.00 | 0.00 | 75 | 1016.9 |
| 20260508192838 | 12 | 103 | 3.2 | 11.3 | 0.00 | 0.00 | 0.00 | 75 | 1016.8 |
| 20260508192338 | 12 | 93 | 3.2 | 11.3 | 0.00 | 0.00 | 0.00 | 74 | 1016.7 |
| 20260508191839 | 12 | 99 | 1.6 | 4.8 | 0.00 | 0.00 | 0.00 | 74 | 1016.7 |
| 20260508191337 | 13 | 107 | 1.6 | 4.8 | 0.00 | 0.00 | 0.00 | 75 | 1016.5 |
| 20260508190840 | 13 | 91 | 0.0 | 3.2 | 0.00 | 0.00 | 0.00 | 76 | 1016.3 |
| 20260508185838 | 13 | 107 | 3.2 | 4.8 | 0.00 | 0.00 | 0.00 | 79 | 1016.3 |
| 20260508185338 | 13 | 140 | 0.0 | 1.6 | 0.00 | 0.00 | 0.00 | 80 | 1016.3 |
| 20260508184839 | 13 | 150 | 0.0 | 1.6 | 0.00 | 0.00 | 0.00 | 79 | 1016.3 |
| 20260508184338 | 13 | 140 | 0.0 | 1.6 | 0.00 | 0.00 | 0.00 | 79 | 1016.2 |
| 20260508183840 | 13 | 188 | 0.0 | 0.0 | 0.00 | 0.00 | 0.00 | 79 | 1016.2 |
| 20260508183338 | 13 | 145 | 0.0 | 1.6 | 0.00 | 0.00 | 0.00 | 79 | 1016.1 |
| 20260508182839 | 13 | 135 | 0.0 | 3.2 | 0.00 | 0.00 | 0.00 | 78 | 1016.1 |
| 20260508182340 | 13 | 148 | 1.6 | 4.8 | 0.00 | 0.00 | 0.00 | 78 | 1016.0 |
| 20260508181838 | 13 | 123 | 0.0 | 3.2 | 0.00 | 0.00 | 0.00 | 77 | 1016.0 |
| 20260508181339 | 13 | 116 | 3.2 | 9.7 | 0.00 | 0.00 | 0.00 | 77 | 1015.9 |